Time,TemperatureF,DewpointF,PressureIn,WindDirection,WindDirectionDegrees,WindSpeedMPH,WindSpeedGustMPH,Humidity,HourlyPrecipIn,Conditions,Clouds,dailyrainin,SoftwareType,DateUTC
2013-01-31 00:09:00,55.1,55.0,29.38,SSW,200,2.0,-999.0,100,-99.99,,,0.00,weatherlink.com 1.10,2013-01-31 05:09:00,
2013-01-31 00:24:00,55.3,55.0,29.37,SW,219,2.0,-999.0,100,-99.99,,,0.00,weatherlink.com 1.10,2013-01-31 05:24:00,
2013-01-31 00:39:00,55.7,56.0,29.35,SW,232,0.0,-999.0,100,-99.99,,,0.00,weatherlink.com 1.10,2013-01-31 05:39:00,
2013-01-31 00:54:00,55.9,56.0,29.33,SSW,206,5.0,-999.0,100,-99.99,,,0.00,weatherlink.com 1.10,2013-01-31 05:54:00,
2013-01-31 01:08:00,56.3,56.0,29.32,SSW,206,2.0,-999.0,100,-99.99,,,0.00,weatherlink.com 1.10,2013-01-31 06:08:00,
2013-01-31 01:24:00,56.7,57.0,29.30,South,172,2.0,-999.0,100,-99.99,,,0.00,weatherlink.com 1.10,2013-01-31 06:24:00,
2013-01-31 01:38:00,56.7,57.0,29.28,WSW,246,3.0,-999.0,100,-99.99,,,0.00,weatherlink.com 1.10,2013-01-31 06:38:00,
2013-01-31 01:54:00,56.9,57.0,29.27,SSW,192,2.0,-999.0,100,-99.99,,,0.01,weatherlink.com 1.10,2013-01-31 06:54:00,
2013-01-31 02:09:00,57.0,57.0,29.26,SW,223,4.0,-999.0,100,-99.99,,,0.01,weatherlink.com 1.10,2013-01-31 07:09:00,
2013-01-31 02:24:00,57.2,57.0,29.25,SW,220,2.0,-999.0,100,-99.99,,,0.01,weatherlink.com 1.10,2013-01-31 07:24:00,
2013-01-31 02:38:00,57.3,57.0,29.23,SSW,210,5.0,-999.0,100,-99.99,,,0.03,weatherlink.com 1.10,2013-01-31 07:38:00,
2013-01-31 02:53:00,57.5,58.0,29.20,South,184,8.0,-999.0,100,-99.99,,,0.03,weatherlink.com 1.10,2013-01-31 07:53:00,
2013-01-31 03:09:00,57.8,58.0,29.18,SSW,206,6.0,-999.0,100,-99.99,,,0.04,weatherlink.com 1.10,2013-01-31 08:09:00,
2013-01-31 03:24:00,58.1,58.0,29.15,SW,222,5.0,-999.0,100,-99.99,,,0.04,weatherlink.com 1.10,2013-01-31 08:24:00,
2013-01-31 03:39:00,58.4,58.0,29.14,SW,234,11.0,-999.0,100,-99.99,,,0.05,weatherlink.com 1.10,2013-01-31 08:39:00,
2013-01-31 03:54:00,58.9,59.0,29.12,SSW,198,7.0,-999.0,100,-99.99,,,0.05,weatherlink.com 1.10,2013-01-31 08:54:00,
2013-01-31 04:08:00,58.9,59.0,29.10,SW,232,5.0,-999.0,100,-99.99,,,0.05,weatherlink.com 1.10,2013-01-31 09:08:00,
2013-01-31 04:24:00,58.9,59.0,29.07,SW,227,7.0,-999.0,100,-99.99,,,0.05,weatherlink.com 1.10,2013-01-31 09:24:00,
2013-01-31 04:38:00,59.2,59.0,29.05,SW,223,8.0,-999.0,100,-99.99,,,0.05,weatherlink.com 1.10,2013-01-31 09:38:00,
2013-01-31 04:54:00,59.5,60.0,29.04,WSW,250,6.0,-999.0,100,-99.99,,,0.05,weatherlink.com 1.10,2013-01-31 09:54:00,
2013-01-31 05:08:00,59.6,60.0,29.03,WSW,250,3.0,-999.0,100,-99.99,,,0.06,weatherlink.com 1.10,2013-01-31 10:08:00,
2013-01-31 05:24:00,59.6,60.0,29.00,South,184,2.0,-999.0,100,-99.99,,,0.10,weatherlink.com 1.10,2013-01-31 10:24:00,
2013-01-31 05:38:00,59.3,59.0,28.97,SSW,206,12.0,-999.0,100,-99.99,,,0.13,weatherlink.com 1.10,2013-01-31 10:38:00,
2013-01-31 05:55:00,59.6,60.0,28.95,SSW,212,11.0,-999.0,100,-99.99,,,0.18,weatherlink.com 1.10,2013-01-31 10:55:00,
2013-01-31 06:08:00,59.3,59.0,28.95,WSW,257,5.0,-999.0,100,-99.99,,,0.19,weatherlink.com 1.10,2013-01-31 11:08:00,
2013-01-31 06:23:00,59.2,59.0,28.95,SW,219,6.0,-999.0,100,-99.99,,,0.23,weatherlink.com 1.10,2013-01-31 11:23:00,
2013-01-31 06:39:00,59.3,59.0,28.96,SW,229,9.0,-999.0,100,-99.99,,,0.25,weatherlink.com 1.10,2013-01-31 11:39:00,
2013-01-31 06:53:00,59.2,59.0,28.98,WNW,299,4.0,-999.0,100,-99.99,,,0.26,weatherlink.com 1.10,2013-01-31 11:53:00,
2013-01-31 07:09:00,58.7,59.0,28.98,SW,219,0.0,-999.0,100,-99.99,,,0.33,weatherlink.com 1.10,2013-01-31 12:09:00,
2013-01-31 07:23:00,58.0,58.0,28.95,SSW,203,3.0,-999.0,100,-99.99,,,0.33,weatherlink.com 1.10,2013-01-31 12:23:00,
2013-01-31 07:39:00,57.5,58.0,28.93,SSW,208,2.0,-999.0,100,-99.99,,,0.33,weatherlink.com 1.10,2013-01-31 12:39:00,
2013-01-31 07:54:00,57.0,57.0,28.92,SW,216,3.0,-999.0,100,-99.99,,,0.33,weatherlink.com 1.10,2013-01-31 12:54:00,
2013-01-31 08:08:00,56.7,57.0,28.92,SW,220,2.0,-999.0,100,-99.99,,,0.33,weatherlink.com 1.10,2013-01-31 13:08:00,
2013-01-31 08:24:00,56.5,57.0,28.91,SSW,205,3.0,-999.0,100,-99.99,,,0.33,weatherlink.com 1.10,2013-01-31 13:24:00,
2013-01-31 08:39:00,56.3,56.0,28.91,SSW,199,5.0,-999.0,100,-99.99,,,0.33,weatherlink.com 1.10,2013-01-31 13:39:00,
2013-01-31 08:54:00,55.9,56.0,28.90,West,277,7.0,-999.0,100,-99.99,,,0.33,weatherlink.com 1.10,2013-01-31 13:54:00,
2013-01-31 09:09:00,47.7,45.0,28.96,NNW,333,2.0,-999.0,90,-99.99,,,0.42,weatherlink.com 1.10,2013-01-31 14:09:00,
2013-01-31 09:24:00,45.1,42.0,28.98,NW,322,3.0,-999.0,89,-99.99,,,0.42,weatherlink.com 1.10,2013-01-31 14:24:00,
2013-01-31 09:39:00,44.2,41.0,29.00,NW,319,6.0,-999.0,89,-99.99,,,0.42,weatherlink.com 1.10,2013-01-31 14:39:00,
2013-01-31 09:54:00,43.6,40.0,29.01,WNW,289,5.0,-999.0,87,-99.99,,,0.42,weatherlink.com 1.10,2013-01-31 14:54:00,
2013-01-31 10:09:00,42.3,38.0,29.04,NW,320,1.0,-999.0,86,-99.99,,,0.42,weatherlink.com 1.10,2013-01-31 15:09:00,
2013-01-31 10:24:00,42.1,39.0,29.04,WSW,247,1.0,-999.0,88,-99.99,,,0.42,weatherlink.com 1.10,2013-01-31 15:24:00,
2013-01-31 10:39:00,42.9,39.0,29.05,WSW,257,10.0,-999.0,85,-99.99,,,0.42,weatherlink.com 1.10,2013-01-31 15:39:00,
2013-01-31 10:54:00,44.6,37.0,29.06,WSW,257,7.0,-999.0,75,-99.99,,,0.42,weatherlink.com 1.10,2013-01-31 15:54:00,
2013-01-31 11:09:00,45.4,33.0,29.08,SSW,202,2.0,-999.0,63,-99.99,,,0.43,weatherlink.com 1.10,2013-01-31 16:09:00,
2013-01-31 11:24:00,45.7,31.0,29.10,West,267,11.0,-999.0,57,-99.99,,,0.43,weatherlink.com 1.10,2013-01-31 16:24:00,
2013-01-31 11:39:00,46.0,30.0,29.11,West,263,12.0,-999.0,53,-99.99,,,0.43,weatherlink.com 1.10,2013-01-31 16:39:00,
2013-01-31 11:54:00,45.4,26.0,29.13,NW,306,8.0,-999.0,46,-99.99,,,0.43,weatherlink.com 1.10,2013-01-31 16:54:00,
2013-01-31 12:09:00,44.6,24.0,29.15,WSW,253,12.0,-999.0,44,-99.99,,,0.43,weatherlink.com 1.10,2013-01-31 17:09:00,
2013-01-31 12:24:00,45.2,24.0,29.15,West,268,18.0,-999.0,44,-99.99,,,0.43,weatherlink.com 1.10,2013-01-31 17:24:00,
2013-01-31 12:39:00,44.5,22.0,29.15,West,272,6.0,-999.0,41,-99.99,,,0.43,weatherlink.com 1.10,2013-01-31 17:39:00,
2013-01-31 12:54:00,44.6,24.0,29.15,West,264,7.0,-999.0,44,-99.99,,,0.43,weatherlink.com 1.10,2013-01-31 17:54:00,
2013-01-31 13:09:00,44.8,22.0,29.16,North,7,6.0,-999.0,40,-99.99,,,0.43,weatherlink.com 1.10,2013-01-31 18:09:00,
2013-01-31 13:24:00,43.3,19.0,29.18,WNW,287,7.0,-999.0,38,-99.99,,,0.43,weatherlink.com 1.10,2013-01-31 18:24:00,
2013-01-31 13:39:00,41.9,17.0,29.20,West,281,11.0,-999.0,36,-99.99,,,0.43,weatherlink.com 1.10,2013-01-31 18:39:00,
2013-01-31 13:54:00,42.1,17.0,29.20,WNW,292,7.0,-999.0,36,-99.99,,,0.43,weatherlink.com 1.10,2013-01-31 18:54:00,
2013-01-31 14:08:00,42.2,16.0,29.22,SW,232,10.0,-999.0,34,-99.99,,,0.43,weatherlink.com 1.10,2013-01-31 19:08:00,
2013-01-31 14:24:00,42.3,16.0,29.23,West,272,3.0,-999.0,34,-99.99,,,0.43,weatherlink.com 1.10,2013-01-31 19:24:00,
2013-01-31 14:38:00,41.6,16.0,29.23,SW,215,3.0,-999.0,36,-99.99,,,0.43,weatherlink.com 1.10,2013-01-31 19:38:00,
2013-01-31 14:54:00,41.3,15.0,29.25,NW,308,4.0,-999.0,35,-99.99,,,0.43,weatherlink.com 1.10,2013-01-31 19:54:00,
2013-01-31 15:08:00,40.3,15.0,29.27,NW,309,5.0,-999.0,35,-99.99,,,0.43,weatherlink.com 1.10,2013-01-31 20:08:00,
2013-01-31 15:24:00,39.8,15.0,29.28,West,265,4.0,-999.0,37,-99.99,,,0.43,weatherlink.com 1.10,2013-01-31 20:24:00,
2013-01-31 15:39:00,39.5,15.0,29.29,SW,236,6.0,-999.0,37,-99.99,,,0.43,weatherlink.com 1.10,2013-01-31 20:39:00,
2013-01-31 15:54:00,38.8,16.0,29.30,NW,316,5.0,-999.0,39,-99.99,,,0.43,weatherlink.com 1.10,2013-01-31 20:54:00,
2013-01-31 16:09:00,37.8,16.0,29.32,West,267,9.0,-999.0,41,-99.99,,,0.43,weatherlink.com 1.10,2013-01-31 21:09:00,
2013-01-31 16:25:00,37.2,15.0,29.32,WNW,289,5.0,-999.0,41,-99.99,,,0.43,weatherlink.com 1.10,2013-01-31 21:25:00,
2013-01-31 16:39:00,37.0,16.0,29.33,SW,222,6.0,-999.0,42,-99.99,,,0.43,weatherlink.com 1.10,2013-01-31 21:39:00,
2013-01-31 16:55:00,36.6,16.0,29.34,WSW,248,3.0,-999.0,43,-99.99,,,0.43,weatherlink.com 1.10,2013-01-31 21:55:00,
2013-01-31 17:08:00,36.0,16.0,29.35,WNW,285,6.0,-999.0,44,-99.99,,,0.43,weatherlink.com 1.10,2013-01-31 22:08:00,
2013-01-31 17:24:00,35.6,16.0,29.36,SW,229,2.0,-999.0,44,-99.99,,,0.43,weatherlink.com 1.10,2013-01-31 22:24:00,
2013-01-31 17:39:00,35.3,16.0,29.37,WSW,247,5.0,-999.0,45,-99.99,,,0.43,weatherlink.com 1.10,2013-01-31 22:39:00,
2013-01-31 17:54:00,35.5,14.0,29.38,NNW,339,5.0,-999.0,42,-99.99,,,0.43,weatherlink.com 1.10,2013-01-31 22:54:00,
2013-01-31 18:09:00,35.3,13.0,29.39,WNW,284,7.0,-999.0,40,-99.99,,,0.43,weatherlink.com 1.10,2013-01-31 23:09:00,
2013-01-31 18:24:00,34.9,13.0,29.40,WSW,237,8.0,-999.0,41,-99.99,,,0.43,weatherlink.com 1.10,2013-01-31 23:24:00,
2013-01-31 18:39:00,34.4,13.0,29.41,WNW,298,1.0,-999.0,41,-99.99,,,0.43,weatherlink.com 1.10,2013-01-31 23:39:00,
2013-01-31 18:54:00,34.0,13.0,29.42,WSW,239,5.0,-999.0,43,-99.99,,,0.43,weatherlink.com 1.10,2013-01-31 23:54:00,
2013-01-31 19:09:00,33.7,13.0,29.43,NNW,342,5.0,-999.0,43,-99.99,,,0.43,weatherlink.com 1.10,2013-02-01 00:09:00,
2013-01-31 19:25:00,33.5,13.0,29.43,WSW,248,4.0,-999.0,43,-99.99,,,0.43,weatherlink.com 1.10,2013-02-01 00:25:00,
2013-01-31 19:39:00,33.4,12.0,29.45,NNW,329,7.0,-999.0,42,-99.99,,,0.43,weatherlink.com 1.10,2013-02-01 00:39:00,
2013-01-31 19:55:00,32.8,12.0,29.46,NNW,339,3.0,-999.0,43,-99.99,,,0.43,weatherlink.com 1.10,2013-02-01 00:55:00,
2013-01-31 20:09:00,32.4,12.0,29.46,SSE,162,16.0,-999.0,43,-99.99,,,0.43,weatherlink.com 1.10,2013-02-01 01:09:00,
2013-01-31 20:25:00,31.8,13.0,29.46,WSW,253,5.0,-999.0,45,-99.99,,,0.43,weatherlink.com 1.10,2013-02-01 01:25:00,
2013-01-31 20:39:00,31.6,14.0,29.48,WNW,292,7.0,-999.0,48,-99.99,,,0.43,weatherlink.com 1.10,2013-02-01 01:39:00,
2013-01-31 20:55:00,31.0,13.0,29.49,West,274,5.0,-999.0,48,-99.99,,,0.43,weatherlink.com 1.10,2013-02-01 01:55:00,
2013-01-31 21:09:00,30.7,12.0,29.50,WSW,251,3.0,-999.0,46,-99.99,,,0.43,weatherlink.com 1.10,2013-02-01 02:09:00,
2013-01-31 21:24:00,30.4,12.0,29.51,WSW,253,1.0,-999.0,47,-99.99,,,0.43,weatherlink.com 1.10,2013-02-01 02:24:00,
2013-01-31 21:39:00,30.1,13.0,29.51,West,275,2.0,-999.0,49,-99.99,,,0.43,weatherlink.com 1.10,2013-02-01 02:39:00,
2013-01-31 21:55:00,29.8,12.0,29.51,WSW,257,6.0,-999.0,48,-99.99,,,0.43,weatherlink.com 1.10,2013-02-01 02:55:00,
2013-01-31 22:10:00,30.0,11.0,29.52,West,272,6.0,-999.0,46,-99.99,,,0.43,weatherlink.com 1.10,2013-02-01 03:10:00,
2013-01-31 22:25:00,30.0,11.0,29.52,WSW,248,8.0,-999.0,45,-99.99,,,0.43,weatherlink.com 1.10,2013-02-01 03:25:00,
2013-01-31 22:39:00,29.7,11.0,29.52,West,261,5.0,-999.0,46,-99.99,,,0.43,weatherlink.com 1.10,2013-02-01 03:39:00,
2013-01-31 22:54:00,29.5,-99.9,29.53,West,265,2.0,-999.0,-999,-99.99,,,0.43,weatherlink.com 1.10,2013-02-01 03:54:00,
2013-01-31 23:09:00,29.4,11.0,29.53,WNW,294,11.0,-999.0,46,-99.99,,,0.43,weatherlink.com 1.10,2013-02-01 04:09:00,
2013-01-31 23:24:00,29.3,10.0,29.53,WSW,241,11.0,-999.0,45,-99.99,,,0.43,weatherlink.com 1.10,2013-02-01 04:24:00,
2013-01-31 23:39:00,29.1,11.0,29.53,WNW,285,3.0,-999.0,46,-99.99,,,0.43,weatherlink.com 1.10,2013-02-01 04:39:00,
2013-01-31 23:55:00,29.0,11.0,29.54,WSW,256,8.0,-999.0,47,-99.99,,,0.43,weatherlink.com 1.10,2013-02-01 04:55:00,